Powrót do katalogu

DELTA 1 DEB

AktywnySSO
NORAD 21492·DEBRIS·🇺🇸 United States

Wystrzelony Jun 12, 1975 z Vandenberg Space Force Base

Loading…

Następne Przeloty (najbliższe 24 godziny)

TLE

ŚwieżeSource: Space-Track

Epoka: Sep 14, 2026, 07:32 UTC

1 21492U 75052FM  26257.31415288  .00000037  00000-0  15913-3 0  9993
2 21492  99.8389  15.6897 0061595 353.2024  32.0180 13.33796298720618

Śledź DELTA 1 DEB w czasie rzeczywistym z AllMySat

Download on the App Store